SV7RNH Weather Reports


Display with metric or nautical units.
time (UTC)temp
F
wind
direction
speed
MPH
gust
MPH
rain 1hr
in
rain 24hr
in
rain mn
in
humidity
%
barometer
mb
20260506153003 76 246 2.0 5.0 0.00 0.00 0.00 38 1015.7
20260506152503 77 234 2.0 5.0 0.00 0.00 0.00 36 1015.6
20260506152003 77 252 1.0 7.0 0.00 0.00 0.00 34 1015.7
20260506151504 78 260 2.0 7.0 0.00 0.00 0.00 34 1015.6
20260506151003 79 265 4.0 7.0 0.00 0.00 0.00 33 1015.6
20260506150503 80 260 2.0 7.0 0.00 0.00 0.00 31 1015.6
20260506150004 80 246 2.0 7.0 0.00 0.00 0.00 31 1015.7
20260506145503 81 141 4.0 7.0 0.00 0.00 0.00 28 1015.6
20260506145003 80 161 1.0 5.0 0.00 0.00 0.00 28 1015.7
20260506144504 80 242 1.0 8.0 0.00 0.00 0.00 29 1015.7
20260506144003 79 280 3.0 8.0 0.00 0.00 0.00 30 1015.8
20260506143503 80 325 2.0 10.0 0.00 0.00 0.00 30 1015.8
20260506143003 79 287 2.0 10.0 0.00 0.00 0.00 31 1015.7
20260506142504 80 263 4.0 8.0 0.00 0.00 0.00 29 1015.7
20260506142004 80 257 2.0 9.0 0.00 0.00 0.00 29 1015.8
20260506141503 81 271 4.0 10.0 0.00 0.00 0.00 28 1015.7
20260506141003 82 278 2.0 10.0 0.00 0.00 0.00 27 1015.7
20260506140504 82 270 4.0 8.0 0.00 0.00 0.00 26 1015.8
20260506140004 82 257 2.0 10.0 0.00 0.00 0.00 27 1015.7
20260506135503 82 237 2.0 10.0 0.00 0.00 0.00 28 1015.9
20260506135004 82 248 3.0 8.0 0.00 0.00 0.00 26 1015.9
20260506134504 83 245 2.0 8.0 0.00 0.00 0.00 27 1015.9
20260506134003 83 238 1.0 8.0 0.00 0.00 0.00 27 1015.7
20260506133504 82 266 2.0 8.0 0.00 0.00 0.00 28 1015.9
20260506133004 83 257 4.0 8.0 0.00 0.00 0.00 27 1015.8
20260506132503 83 293 3.0 7.0 0.00 0.00 0.00 25 1015.9
20260506132003 83 284 3.0 8.0 0.00 0.00 0.00 25 1016.1
20260506131504 82 265 2.0 9.0 0.00 0.00 0.00 26 1016.1
20260506131003 83 280 4.0 9.0 0.00 0.00 0.00 24 1016.1
20260506130503 84 286 4.0 8.0 0.00 0.00 0.00 24 1016.1
20260506130003 83 271 2.0 8.0 0.00 0.00 0.00 23 1016.1
20260506125504 83 267 4.0 8.0 0.00 0.00 0.00 25 1016.2
20260506125003 83 216 1.0 8.0 0.00 0.00 0.00 22 1016.1
20260506124503 83 195 3.0 8.0 0.00 0.00 0.00 20 1016.2
20260506124004 83 241 3.0 8.0 0.00 0.00 0.00 22 1016.2
20260506123504 84 252 4.0 8.0 0.00 0.00 0.00 21 1016.3
20260506123003 84 263 2.0 8.0 0.00 0.00 0.00 20 1016.3
20260506122503 85 285 2.0 7.0 0.00 0.00 0.00 19 1016.4
20260506122004 84 197 2.0 7.0 0.00 0.00 0.00 19 1016.4
20260506121503 83 172 2.0 8.0 0.00 0.00 0.00 20 1016.5
20260506121003 83 299 4.0 8.0 0.00 0.00 0.00 20 1016.6
20260506120503 83 0 0.0 8.0 0.00 0.00 0.00 23 1016.7
20260506120004 83 211 4.0 8.0 0.00 0.00 0.00 22 1016.6
20260506115503 82 135 2.0 7.0 0.00 0.00 0.00 21 1016.7
20260506115003 82 142 4.0 7.0 0.00 0.00 0.00 21 1016.7
20260506114504 81 142 3.0 8.0 0.00 0.00 0.00 22 1016.7
20260506114003 81 140 3.0 9.0 0.00 0.00 0.00 22 1016.7
20260506113503 82 145 2.0 9.0 0.00 0.00 0.00 21 1016.8
20260506113003 82 146 4.0 8.0 0.00 0.00 0.00 20 1016.9
20260506112504 82 156 2.0 9.0 0.00 0.00 0.00 20 1016.8
20260506112003 82 146 2.0 9.0 0.00 0.00 0.00 21 1016.9
20260506111503 81 126 2.0 8.0 0.00 0.00 0.00 21 1016.8
20260506111003 82 121 2.0 8.0 0.00 0.00 0.00 20 1017.0
20260506110504 82 133 4.0 8.0 0.00 0.00 0.00 18 1017.0
20260506110003 82 201 4.0 7.0 0.00 0.00 0.00 15 1017.0
20260506105503 82 267 1.0 7.0 0.00 0.00 0.00 14 1016.9
20260506105004 82 244 2.0 7.0 0.00 0.00 0.00 13 1016.8
20260506104504 82 143 1.0 7.0 0.00 0.00 0.00 14 1016.9
20260506104003 81 151 2.0 8.0 0.00 0.00 0.00 14 1016.9
20260506103503 81 152 2.0 8.0 0.00 0.00 0.00 17 1017.0
20260506103004 81 168 4.0 8.0 0.00 0.00 0.00 15 1017.1
20260506102503 82 224 2.0 8.0 0.00 0.00 0.00 17 1017.1
20260506102004 82 193 2.0 7.0 0.00 0.00 0.00 19 1017.1
20260506101503 82 146 3.0 8.0 0.00 0.00 0.00 20 1017.1
20260506101003 82 157 2.0 8.0 0.00 0.00 0.00 20 1017.2
20260506100504 82 184 4.0 8.0 0.00 0.00 0.00 18 1017.2
20260506100004 82 154 2.0 8.0 0.00 0.00 0.00 17 1017.4
20260506095503 82 161 3.0 8.0 0.00 0.00 0.00 15 1017.4
20260506095004 83 171 2.0 5.0 0.00 0.00 0.00 14 1017.4
20260506094503 83 128 1.0 4.0 0.00 0.00 0.00 13 1017.3
20260506094003 82 132 2.0 5.0 0.00 0.00 0.00 12 1017.4
20260506093504 82 0 0.0 5.0 0.00 0.00 0.00 12 1017.3
20260506093004 82 135 2.0 5.0 0.00 0.00 0.00 12 1017.4
20260506092503 82 146 2.0 4.0 0.00 0.00 0.00 14 1017.4
20260506092003 81 169 2.0 4.0 0.00 0.00 0.00 15 1017.5
20260506091504 81 206 1.0 4.0 0.00 0.00 0.00 18 1017.4
20260506091003 80 0 0.0 6.0 0.00 0.00 0.00 20 1017.4
20260506090503 79 153 1.0 7.0 0.00 0.00 0.00 19 1017.4
20260506090003 80 178 1.0 7.0 0.00 0.00 0.00 19 1017.4
20260506085504 80 246 2.0 5.0 0.00 0.00 0.00 22 1017.3
20260506085003 79 183 2.0 5.0 0.00 0.00 0.00 26 1017.4
20260506084503 79 178 2.0 5.0 0.00 0.00 0.00 27 1017.4
20260506084004 78 187 2.0 5.0 0.00 0.00 0.00 27 1017.3
20260506083503 78 148 3.0 7.0 0.00 0.00 0.00 31 1017.3
20260506083003 78 131 2.0 7.0 0.00 0.00 0.00 32 1017.2
20260506082503 78 176 2.0 7.0 0.00 0.00 0.00 33 1017.3
20260506082004 77 246 1.0 5.0 0.00 0.00 0.00 34 1017.2
20260506081503 76 213 2.0 5.0 0.00 0.00 0.00 34 1017.2
20260506081003 76 207 2.0 5.0 0.00 0.00 0.00 34 1017.3
20260506080503 76 240 2.0 5.0 0.00 0.00 0.00 35 1017.3
20260506073504 74 243 1.0 5.0 0.00 0.00 0.00 37 1017.3
20260506073003 74 229 1.0 5.0 0.00 0.00 0.00 38 1017.1
20260506072504 74 0 0.0 4.0 0.00 0.00 0.00 38 1017.2
20260506072004 74 1 2.0 4.0 0.00 0.00 0.00 39 1017.2
20260506071503 74 0 0.0 4.0 0.00 0.00 0.00 39 1017.2
20260506071003 74 344 2.0 4.0 0.00 0.00 0.00 39 1017.2
20260506070504 74 311 2.0 4.0 0.00 0.00 0.00 40 1017.2
20260506062505 71 225 1.0 4.0 0.00 0.00 0.00 42 1017.5
20260506062003 71 225 2.0 4.0 0.00 0.00 0.00 42 1017.5
20260506061504 72 225 1.0 3.0 0.00 0.00 0.00 42 1017.5
20260506061003 71 225 1.0 3.0 0.00 0.00 0.00 43 1017.4
20260506060504 70 0 0.0 3.0 0.00 0.00 0.00 44 1017.4
20260506051003 67 0 0.0 3.0 0.00 0.00 0.00 46 1017.6
20260506050503 67 0 0.0 3.0 0.00 0.00 0.00 45 1017.5
20260506045003 66 0 0.0 2.0 0.00 0.00 0.00 46 1017.4
20260506044503 65 225 1.0 2.0 0.00 0.00 0.00 48 1017.3
20260506044004 65 225 1.0 3.0 0.00 0.00 0.00 49 1017.3
20260506043504 64 0 0.0 3.0 0.00 0.00 0.00 50 1017.2
20260506043003 63 229 1.0 3.0 0.00 0.00 0.00 52 1017.2
20260506042503 61 0 0.0 4.0 0.00 0.00 0.00 53 1017.1
20260506042004 60 0 0.0 4.0 0.00 0.00 0.00 53 1017.1
20260506041504 60 0 0.0 2.0 0.00 0.00 0.00 53 1017.0
20260506041003 60 0 0.0 2.0 0.00 0.00 0.00 53 1017.0
20260506040503 60 0 0.0 2.0 0.00 0.00 0.00 54 1017.0
20260506040004 59 0 0.0 2.0 0.00 0.00 0.00 54 1016.9
20260506035504 59 85 1.0 3.0 0.00 0.00 0.00 54 1016.7
20260506035003 59 0 0.0 5.0 0.00 0.00 0.00 54 1016.7
20260506034503 59 310 1.0 5.0 0.00 0.00 0.00 54 1016.7
20260506034004 59 228 2.0 4.0 0.00 0.00 0.00 54 1016.7
20260506033504 59 0 0.0 4.0 0.00 0.00 0.00 53 1016.7
20260506033004 59 0 0.0 4.0 0.00 0.00 0.00 53 1016.7
20260506032503 59 0 0.0 2.0 0.00 0.00 0.00 53 1016.8
20260506032004 59 356 1.0 5.0 0.00 0.00 0.00 53 1016.8
20260506031503 59 347 1.0 5.0 0.00 0.00 0.00 53 1016.7
20260506031004 59 0 0.0 4.0 0.00 0.00 0.00 53 1016.7
20260506030503 59 0 0.0 5.0 0.00 0.00 0.00 52 1016.7
20260506030003 59 0 0.0 5.0 0.00 0.00 0.00 52 1016.6
20260506025503 59 26 2.0 7.0 0.00 0.00 0.00 52 1016.7
20260506025003 59 37 1.0 7.0 0.00 0.00 0.00 51 1016.6
20260506024503 59 51 2.0 7.0 0.00 0.00 0.00 51 1016.6
20260506024004 60 19 2.0 4.0 0.00 0.00 0.00 51 1016.7
20260506023503 60 239 2.0 4.0 0.00 0.00 0.00 51 1016.5
20260506023004 60 0 0.0 4.0 0.00 0.00 0.00 50 1016.6
20260506022503 60 230 1.0 3.0 0.00 0.00 0.00 49 1016.6
20260506022003 60 0 0.0 3.0 0.00 0.00 0.00 48 1016.7
20260506021503 60 0 0.0 3.0 0.00 0.00 0.00 47 1016.7
20260506021004 60 42 1.0 3.0 0.00 0.00 0.00 46 1016.6
20260506020504 60 0 0.0 2.0 0.00 0.00 0.00 45 1016.7
20260506020003 61 36 1.0 2.0 0.00 0.00 0.00 45 1016.6
20260506015503 61 0 0.0 2.0 0.00 0.00 0.00 44 1016.6
20260506015003 61 0 0.0 2.0 0.00 0.00 0.00 44 1016.6
20260506014504 62 98 1.0 2.0 0.00 0.00 0.00 44 1016.6
20260506014003 62 0 0.0 3.0 0.00 0.00 0.00 43 1016.5
20260506013503 62 31 1.0 3.0 0.00 0.00 0.00 42 1016.5
20260506013003 62 16 2.0 3.0 0.00 0.00 0.00 42 1016.6
20260506012504 62 352 1.0 3.0 0.00 0.00 0.00 42 1016.6
20260506012004 62 0 0.0 2.0 0.00 0.00 0.00 42 1016.6
20260506011503 62 0 0.0 2.0 0.00 0.00 0.00 42 1016.5
20260506011003 62 0 0.0 2.0 0.00 0.00 0.00 42 1016.5
20260506010503 63 0 0.0 2.0 0.00 0.00 0.00 42 1016.4
20260506010004 63 0 0.0 2.0 0.00 0.00 0.00 42 1016.4
20260506005503 63 262 1.0 3.0 0.00 0.00 0.00 43 1016.4
20260506005003 62 0 0.0 5.0 0.00 0.00 0.00 43 1016.4
20260506004503 62 0 0.0 5.0 0.00 0.00 0.00 44 1016.4
20260506004004 62 251 2.0 6.0 0.00 0.00 0.00 45 1016.3
20260506003503 63 282 3.0 6.0 0.00 0.00 0.00 45 1016.3
20260506003003 63 256 1.0 4.0 0.00 0.00 0.00 43 1016.2
20260506002503 63 0 0.0 3.0 0.00 0.00 0.00 42 1016.3
20260506002004 64 0 0.0 3.0 0.00 0.00 0.00 42 1016.1
20260506001504 64 225 2.0 3.0 0.00 0.00 0.00 42 1016.2
20260506001003 64 0 0.0 3.0 0.00 0.00 0.00 42 1016.2
20260506000503 64 0 0.0 4.0 0.00 0.00 0.00 41 1016.2
20260506000003 64 0 0.0 4.0 0.00 0.00 0.00 41 1016.2
20260505235503 64 266 1.0 4.0 0.00 0.00 0.00 40 1016.2
20260505235004 65 0 0.0 4.0 0.00 0.00 0.00 39 1016.2
20260505234504 65 35 2.0 4.0 0.00 0.00 0.00 39 1016.2
20260505234003 65 0 0.0 3.0 0.00 0.00 0.00 39 1016.1
20260505233503 65 335 1.0 3.0 0.00 0.00 0.00 39 1016.2
20260505233003 65 0 0.0 6.0 0.00 0.00 0.00 39 1016.2
20260505232504 65 0 0.0 6.0 0.00 0.00 0.00 39 1016.1
20260505232003 65 2 1.0 6.0 0.00 0.00 0.00 39 1016.1
20260505231503 65 0 0.0 4.0 0.00 0.00 0.00 40 1016.1
20260505231003 65 0 0.0 4.0 0.00 0.00 0.00 40 1016.4
20260505230504 65 43 1.0 5.0 0.00 0.00 0.00 40 1016.2
20260505230004 65 35 1.0 8.0 0.00 0.00 0.00 39 1016.2
20260505225504 65 13 1.0 8.0 0.00 0.00 0.00 39 1016.2
20260505225003 65 12 4.0 8.0 0.00 0.00 0.00 39 1016.2
20260505224504 66 25 2.0 6.0 0.00 0.00 0.00 39 1016.2
20260505224003 66 27 1.0 5.0 0.00 0.00 0.00 39 1016.3
20260505223503 66 0 0.0 4.0 0.00 0.00 0.00 39 1016.2
20260505223003 66 14 1.0 4.0 0.00 0.00 0.00 39 1016.4
20260505222504 66 26 1.0 4.0 0.00 0.00 0.00 39 1016.3
20260505222004 66 23 1.0 5.0 0.00 0.00 0.00 39 1016.1
20260505221503 66 30 2.0 5.0 0.00 0.00 0.00 38 1016.1
20260505221003 66 42 2.0 7.0 0.00 0.00 0.00 39 1016.2
20260505220504 66 0 0.0 7.0 0.00 0.00 0.00 40 1016.2
20260505220004 66 36 2.0 7.0 0.00 0.00 0.00 42 1016.2
20260505215503 66 27 2.0 4.0 0.00 0.00 0.00 43 1016.0
20260505215003 66 0 0.0 4.0 0.00 0.00 0.00 43 1016.1
20260505214503 66 25 2.0 4.0 0.00 0.00 0.00 43 1016.1
20260505214004 66 324 1.0 4.0 0.00 0.00 0.00 43 1015.9
20260505213503 66 0 0.0 4.0 0.00 0.00 0.00 43 1015.8
20260505213003 66 62 1.0 4.0 0.00 0.00 0.00 43 1016.0
20260505212504 66 45 2.0 6.0 0.00 0.00 0.00 43 1015.9
20260505212003 67 44 1.0 6.0 0.00 0.00 0.00 43 1016.0
20260505211503 67 46 1.0 5.0 0.00 0.00 0.00 42 1016.0
20260505211003 67 223 2.0 4.0 0.00 0.00 0.00 42 1015.9